This is the latest recevied weather packets stored in our database for station/object VE2JJ-13. If no packets are shown the sender has not sent any weather packets the latest 10 day(s).
| Time | Temp. | Humidity | Pressure | Rain* | Wind** | Luminosity | Snow |
|---|---|---|---|---|---|---|---|
| 1777818382 | 11.11° C | 48% | 1003.5 hPa | 0 mm | - | - | - |
| 1777818082 | 11.11° C | 44% | 1003.5 hPa | 0 mm | - | - | - |
| 1777817751 | 11.11° C | 46% | 1003.7 hPa | 0 mm | - | - | - |
| 1777817421 | 10.56° C | 47% | 1003.7 hPa | 0 mm | - | - | - |
| 1777817094 | 10° C | 48% | 1003.7 hPa | 0 mm | - | - | - |
| 1777816791 | 10° C | 49% | 1003.7 hPa | 0 mm | - | - | - |
| 1777816490 | 10° C | 47% | 1003.7 hPa | 0 mm | - | - | - |
| 1777816193 | 10° C | 49% | 1003.8 hPa | 0 mm | - | - | - |
| 1777815891 | 10° C | 51% | 1003.8 hPa | 0 mm | - | - | - |
| 1777815561 | 10° C | 55% | 1003.9 hPa | 0 mm | - | - | - |
| 1777815232 | 9.44° C | 53% | 1003.9 hPa | 0 mm | - | - | - |
| 1777814901 | 8.89° C | 57% | 1003.9 hPa | 0 mm | - | - | - |
| 1777814602 | 8.33° C | 55% | 1003.9 hPa | 0 mm | - | - | - |
| 1777814270 | 8.89° C | 55% | 1003.9 hPa | 0 mm | - | - | - |
| 1777813670 | 8.33° C | 57% | 1003.9 hPa | 0 mm | - | - | - |
| 1777813344 | 7.78° C | 60% | 1003.9 hPa | 0 mm | - | - | - |
| 1777813043 | 7.78° C | 64% | 1003.9 hPa | 0 mm | - | - | - |
| 1777812709 | 7.22° C | 65% | 1004 hPa | 0 mm | - | - | - |
| 1777812414 | 7.22° C | 71% | 1004 hPa | 0 mm | - | - | - |
| 1777812110 | 6.67° C | 71% | 1004 hPa | 0 mm | - | - | - |
| 1777811482 | 6.67° C | 74% | 1004.1 hPa | 0 mm | - | - | - |
| 1777811181 | 6.67° C | 74% | 1004 hPa | 0 mm | - | - | - |
| 1777810849 | 6.11° C | 78% | 1004 hPa | 0 mm | - | - | - |
| 1777810550 | 6.11° C | 78% | 1004.1 hPa | 0 mm | - | - | - |
| 1777810250 | 5.56° C | 78% | 1004.1 hPa | 0 mm | - | - | - |
* Rain latest hour (hover to see other rain measurements)
** Current wind speed in m/s (hover to see current wind gust speed)